Temperature
24 24 24 24 21 18 20 22 25 25 25 25 25 24 24 23 22 21 21 21 21 21 21 20 21 20 20 20 20 20 19 19 19 19 19 19 19 19 19 19 19 19 19 19 19 18 18 19 19
24 24 24 23 19 19 20 23 25 25 26 26 25 25 24 22 22 21 20 21 21 21 21 20 20 20 20 20 20 19 19 19 19 19 19 19 19 19 18 18 18 18 18 18 18 18 18 19 19
24 24 23 19 19 19 23 25 25 26 27 26 26 25 24 22 21 21 21 21 21 21 21 20 20 20 20 20 20 19 19 19 19 19 19 19 18 18 18 18 18 18 18 18 18 18 18 18 18
23 23 22 18 20 21 23 25 25 26 27 27 26 25 24 23 22 22 21 21 21 21 20 20 20 20 20 20 20 19 19 19 19 19 18 18 18 18 18 18 18 18 18 18 18 18 18 18 18
22 22 19 19 20 22 24 26 26 26 26 26 26 23 23 23 23 22 22 21 21 21 20 20 20 20 19 19 19 19 19 18 18 18 18 18 18 18 18 18 18 18 18 18 18 18 18 18 18
22 20 19 19 21 24 25 27 26 26 26 25 24 23 22 23 23 22 22 21 22 22 21 20 20 20 19 19 19 19 18 18 18 18 18 18 18 18 18 18 17 17 17 17 18 18 18 18 18
21 18 19 21 22 24 26 27 26 25 25 26 25 23 22 22 22 22 22 21 21 22 21 20 20 19 19 19 19 19 18 18 18 18 18 18 18 18 17 17 17 17 17 17 18 18 18 18 18
23 19 21 21 23 24 27 27 27 27 26 26 26 23 22 22 22 21 21 21 21 21 21 21 20 20 19 19 19 19 18 18 18 18 18 18 18 18 17 17 17 17 17 18 18 18 18 18 18
23 19 19 21 24 25 27 26 27 27 27 26 26 26 24 23 22 21 21 21 21 21 21 21 20 20 20 19 19 19 18 18 18 18 18 18 18 18 17 17 18 18 18 18 18 18 18 18 18
23 18 20 23 25 25 27 27 27 26 25 25 25 25 24 22 22 22 21 21 21 21 21 21 21 20 20 20 19 19 19 18 18 18 18 18 18 17 17 18 18 18 18 18 18 18 18 18 18
22 20 22 24 26 27 27 28 28 26 24 25 25 24 23 22 22 22 22 22 22 22 21 21 21 21 20 20 20 19 19 18 18 18 18 18 18 17 17 17 17 18 18 17 17 17 17 17 18
22 22 24 26 27 27 28 28 28 27 26 27 27 25 24 23 22 22 22 22 22 22 22 21 21 21 20 20 20 19 19 19 18 18 18 18 18 18 17 17 17 17 17 17 17 17 17 17 17
21 22 25 26 27 27 28 28 28 28 27 27 27 25 25 24 23 23 23 23 22 22 22 21 21 21 20 20 20 19 19 19 19 18 18 18 18 18 17 17 17 17 17 17 17 17 17 17 17
22 23 25 26 27 27 27 28 27 27 27 26 25 25 25 25 24 23 23 22 22 22 22 21 21 21 20 20 20 19 19 19 19 18 18 18 18 18 17 17 17 17 17 17 17 16 16 16 16
24 23 22 24 26 27 27 26 26 28 26 24 24 25 25 25 24 24 24 23 23 23 22 21 21 20 20 20 20 19 19 19 18 18 18 17 17 17 17 17 17 17 17 16 16 16 16 16 16
22 22 22 22 24 27 27 25 26 28 26 24 24 24 24 25 24 25 24 24 23 22 22 21 21 20 20 20 19 19 19 18 18 18 18 17 17 17 17 17 17 17 17 16 16 16 16 16 16
20 21 22 22 24 26 26 25 26 29 27 25 24 24 24 24 24 24 24 24 23 23 22 21 21 20 20 20 19 19 18 18 18 18 17 17 17 17 17 17 16 16 16 16 16 16 16 15 15
20 21 22 22 23 25 24 24 25 28 27 26 25 24 24 23 24 24 24 24 24 23 22 22 21 20 20 19 19 18 18 18 17 17 17 17 17 17 16 16 16 16 15 15 15 15 15 14 14
21 21 20 22 23 24 23 24 25 26 26 26 26 25 24 24 24 24 24 24 23 22 22 22 21 20 20 19 19 18 18 17 17 17 17 16 16 16 16 16 15 15 15 15 14 14 14 14 13
21 20 20 21 23 24 23 23 23 24 25 27 27 27 25 24 23 23 23 23 23 22 22 21 21 20 20 20 19 19 18 17 17 16 16 16 16 16 15 15 14 14 14 14 14 13 13 13 12
21 20 21 21 22 23 24 23 22 23 26 27 28 28 28 26 25 24 23 22 22 22 21 20 20 19 19 18 18 18 17 17 16 15 15 15 15 15 14 14 13 13 13 13 13 12 12 11 10
20 22 22 22 22 20 23 20 21 22 23 24 26 28 27 26 25 24 23 22 22 21 20 20 19 18 18 18 17 17 17 16 16 15 15 14 14 13 13 13 13 13 12 12 11 10 10 10 9
21 22 22 23 22 21 20 20 19 20 23 23 24 28 27 26 25 23 22 21 21 20 19 19 18 18 17 17 16 16 16 16 15 14 14 13 13 12 12 12 12 11 11 10 9 9 8 8 8
23 23 22 19 18 19 20 21 19 20 22 23 23 26 26 25 23 21 20 19 19 19 19 18 18 18 17 16 16 16 15 15 14 14 13 12 12 11 11 11 10 10 9 9 8 8 7 7 7
23 20 18 19 17 18 19 21 19 21 22 22 22 22 23 22 21 19 18 18 18 18 18 17 17 17 16 15 15 15 14 14 13 13 12 11 11 10 10 9 9 8 8 8 7 7 6 6 6
21 19 18 19 18 18 20 20 20 21 22 22 21 20 20 19 18 17 17 17 17 17 17 16 16 16 15 15 14 13 13 12 12 11 11 10 10 9 9 8 8 7 7 6 6 6 6 5 5
21 19 19 18 18 18 18 20 21 20 19 19 18 18 17 17 16 16 16 16 16 16 15 15 15 15 14 13 13 12 11 11 10 10 10 9 9 8 8 7 7 7 6 6 6 6 5 5 5
22 20 17 17 17 17 19 20 18 18 17 17 17 16 16 16 15 15 15 15 15 15 14 14 14 14 13 12 11 10 10 9 9 9 9 8 8 7 7 7 6 6 6 6 6 5 5 5 5
22 21 19 16 16 17 17 17 18 17 16 16 16 15 14 14 14 14 14 14 14 14 14 13 12 12 11 10 10 9 9 9 9 8 8 7 7 7 6 6 6 6 5 5 5 5 5 5 5
22 21 19 18 18 16 16 16 17 15 15 15 14 14 13 14 14 14 14 13 13 13 12 12 11 10 10 9 9 9 8 8 8 7 7 7 6 6 6 6 5 5 5 5 5 4 4 4 4
Wind_Speed
8 7 1 3 5 4 4 6 3 2 1 2 8 10 9 5 5 4 4 15 17 15 16 18 21 21 20 20 19 19 19 19 18 17 17 16 16 16 15 15 14 14 13 12 11 9 8 7 5
4 2 3 5 5 1 6 6 3 3 5 8 9 10 9 7 7 11 8 15 17 16 16 18 21 20 20 20 19 19 19 19 18 17 16 15 15 14 13 13 12 12 11 10 9 7 6 4 2
4 1 4 4 4 7 6 3 1 0 5 8 6 6 7 10 13 11 11 19 15 13 15 19 21 21 20 20 20 19 19 19 18 17 16 15 14 13 12 11 11 10 10 9 8 6 4 2 0
3 5 5 3 8 8 6 5 3 1 1 3 8 7 6 8 11 13 20 20 17 13 16 19 21 21 20 20 20 19 19 18 18 17 16 14 13 13 12 11 10 10 9 8 7 6 4 2 2
3 4 3 3 8 7 7 10 9 5 3 4 9 8 5 5 20 24 22 19 18 13 14 18 21 20 20 20 19 19 18 18 17 16 15 14 12 11 11 11 10 9 9 8 8 7 5 4 4
4 4 2 5 9 8 9 11 7 6 6 7 10 8 5 13 24 23 21 17 16 16 14 18 21 21 20 20 19 19 18 17 16 15 14 13 11 11 10 10 10 10 9 9 8 8 7 7 6
3 3 4 6 7 10 9 5 10 10 10 7 9 8 7 12 19 21 19 16 14 15 14 14 17 19 19 19 19 18 18 17 16 15 13 12 11 10 10 11 10 10 10 9 8 8 7 7 7
5 2 4 5 6 9 6 6 7 12 9 8 7 10 10 13 19 21 18 15 15 13 11 12 14 15 15 17 18 18 17 16 15 13 12 12 11 11 11 11 11 11 10 9 8 8 7 8 8
3 1 5 5 5 6 2 3 4 4 9 6 4 7 14 21 23 22 17 13 13 13 11 10 11 13 14 15 16 17 16 15 13 12 12 11 11 11 11 12 12 11 11 10 9 8 8 8 10
5 5 8 6 5 8 8 3 6 5 8 7 8 10 17 21 24 23 21 18 16 16 14 12 11 12 14 14 14 14 13 13 12 12 12 12 11 11 11 12 13 12 11 10 9 8 8 9 11
7 8 7 10 12 11 10 4 4 11 9 15 20 20 21 21 21 22 21 20 19 18 17 15 14 13 13 10 12 11 11 11 12 13 14 13 11 10 9 10 11 11 10 8 6 6 7 9 9
6 9 9 12 14 10 9 4 1 9 15 22 27 28 25 23 22 22 21 19 18 19 19 18 16 14 13 12 11 11 9 10 10 14 16 12 8 7 8 8 10 9 8 6 6 6 7 8 9
9 12 16 17 16 12 10 6 3 5 13 19 24 26 26 24 20 19 19 19 18 20 20 20 19 17 14 11 9 11 10 11 13 14 16 15 8 5 7 7 8 9 9 7 5 4 2 2 1
9 9 11 11 13 9 8 7 1 4 15 20 20 21 22 23 22 18 19 20 20 20 19 19 19 19 15 14 12 9 12 13 14 13 15 16 12 8 6 4 5 5 7 7 4 3 4 3 4
8 9 12 10 9 8 4 8 6 6 14 19 20 20 20 20 21 23 25 23 22 19 18 17 18 17 17 15 14 11 13 13 10 11 14 14 13 10 7 4 3 3 5 7 6 6 6 4 4
6 4 6 11 7 8 1 9 13 6 12 17 18 18 19 19 21 22 23 20 19 17 17 18 19 16 15 12 11 8 11 11 9 11 12 12 12 12 9 4 3 6 8 7 5 4 5 5 5
4 3 6 10 8 6 3 9 13 9 11 15 19 20 19 17 16 17 20 21 20 19 19 19 16 16 13 10 8 7 7 7 8 10 10 11 12 13 11 6 6 9 8 5 5 5 4 4 5
6 5 6 9 9 7 8 13 16 11 10 14 17 19 19 20 22 20 20 21 19 18 18 18 16 16 13 10 8 7 7 5 6 8 10 13 14 15 13 8 8 8 5 5 5 5 5 4 4
6 6 10 13 12 8 12 15 17 14 11 10 12 16 19 22 20 18 18 18 17 16 17 17 18 17 14 11 10 9 7 6 6 6 11 14 15 15 12 7 7 6 6 5 5 3 6 6 4
8 10 12 14 13 6 8 10 10 10 10 11 13 13 15 15 14 17 17 17 19 19 17 15 15 14 12 10 8 6 7 7 6 6 9 13 14 14 12 8 6 5 6 7 7 5 3 4 5
11 11 14 14 15 8 4 8 9 9 5 5 8 11 13 17 21 21 19 18 17 16 14 12 10 9 7 9 10 11 8 6 5 6 6 8 14 14 13 11 8 6 6 6 7 6 5 3 5
12 15 15 15 11 8 1 4 10 8 9 8 8 7 9 13 16 20 20 18 17 13 11 10 10 9 9 10 11 13 8 6 5 5 5 6 11 12 12 12 10 7 6 6 5 5 4 4 3
15 15 11 9 6 3 5 1 9 7 8 11 12 11 9 11 16 18 17 15 13 12 12 11 11 9 9 9 9 10 9 8 8 7 8 7 6 8 11 11 10 7 5 5 5 4 4 3 2
15 6 3 4 5 2 6 2 8 7 10 12 11 8 6 9 13 13 13 14 14 13 12 11 12 10 9 10 10 11 14 13 11 9 7 5 5 5 7 10 8 6 4 3 3 3 3 2 1
7 5 3 4 5 6 5 3 10 12 11 10 7 3 2 9 15 16 17 15 14 12 11 10 12 12 11 12 11 11 12 12 11 9 7 6 5 4 5 5 5 4 3 2 2 2 1 1 2
7 11 10 7 6 6 5 5 6 8 7 4 6 9 12 13 14 15 14 14 13 12 11 11 13 13 12 13 12 11 11 9 7 7 7 6 5 5 5 5 4 3 2 2 2 1 2 3 4
8 8 11 9 6 2 6 7 7 9 11 11 12 14 14 15 15 15 15 14 13 13 12 12 14 14 14 13 13 12 11 11 10 10 9 7 6 5 5 4 2 1 1 2 3 3 4 4 4
10 10 7 7 7 5 5 3 4 7 6 8 11 14 15 15 16 16 15 14 14 14 13 13 14 14 13 12 11 12 11 11 10 10 10 8 6 5 4 2 1 1 2 2 2 3 4 5 5
1 4 6 6 7 8 4 3 4 4 2 9 12 14 15 15 15 14 14 13 13 13 13 13 12 12 12 11 11 10 9 9 9 9 8 7 5 5 4 3 3 4 7 7 7 7 7 7 6
3 3 5 4 5 6 6 1 7 5 7 13 15 15 14 14 13 13 13 13 13 13 12 12 10 10 10 10 10 10 9 9 9 8 7 7 7 7 7 7 9 10 9 8 8 7 6 6 6
Wind_Direction
288 277 155 61 47 37 273 255 233 212 142 140 132 127 129 120 151 165 135 146 140 149 151 142 137 137 137 135 133 129 126 124 122 120 118 117 117 116 118 120 121 121 121 121 120 118 117 116 113
291 305 66 61 87 312 276 260 199 193 141 135 119 118 103 80 95 115 120 144 146 147 146 142 137 136 136 136 135 133 132 131 130 128 126 125 123 122 121 123 125 127 127 127 126 126 126 127 122
301 349 83 83 156 195 235 288 229 101 157 150 126 98 93 117 128 136 142 145 145 144 144 143 138 137 137 138 138 138 138 137 136 135 134 132 131 130 128 128 129 130 132 134 136 137 142 149 210
24 36 53 92 240 227 220 261 260 174 137 135 117 84 81 127 138 141 143 149 146 145 146 144 140 139 139 141 141 141 141 140 140 139 138 137 136 136 136 135 135 134 134 139 145 152 163 188 256
69 74 50 292 262 253 232 241 236 192 166 127 100 90 69 84 124 138 149 152 147 144 144 145 142 142 142 143 143 143 143 143 143 143 142 140 139 138 138 138 139 141 144 149 156 165 182 205 239
47 74 107 259 267 272 264 234 203 167 138 117 105 105 106 129 135 147 150 151 147 145 144 147 147 147 147 148 147 147 147 147 148 148 146 144 142 141 141 143 146 150 154 159 169 182 200 221 243
134 130 212 240 272 282 274 205 170 164 155 153 132 109 133 147 146 147 145 143 143 144 145 148 151 152 152 152 152 152 152 153 154 153 151 150 151 151 152 153 156 160 166 175 188 202 219 239 260
162 114 266 255 261 272 245 176 179 158 154 144 130 135 157 161 143 140 139 140 141 145 149 150 151 152 154 156 157 157 159 160 160 158 157 158 161 163 164 165 168 173 182 192 204 219 238 260 276
134 106 251 246 252 280 289 176 181 146 128 138 128 137 151 145 137 137 137 138 146 152 157 156 155 156 158 159 164 164 167 168 165 163 164 167 171 174 175 177 180 187 196 205 215 229 249 270 282
144 193 235 231 254 298 302 226 167 106 113 109 96 111 138 144 144 147 151 156 160 163 169 167 165 165 166 170 168 170 173 175 172 171 174 178 184 190 189 191 192 198 208 218 228 239 256 274 284
185 215 244 269 277 287 292 272 155 131 145 150 144 148 153 152 152 157 161 163 167 169 172 174 173 173 174 173 169 175 178 180 184 186 188 189 192 199 197 189 198 208 217 228 251 260 258 267 280
246 259 266 274 279 278 275 272 189 162 177 166 157 159 161 163 164 165 165 167 169 172 177 177 177 177 180 173 177 179 181 186 192 198 196 191 190 189 185 187 198 207 214 220 245 252 251 254 265
251 263 269 270 275 265 270 265 229 199 170 166 160 164 167 166 168 166 165 167 171 177 181 180 179 181 181 174 181 182 187 191 197 198 199 195 190 187 190 198 202 213 214 208 221 229 213 203 210
247 263 282 291 288 274 271 284 40 208 159 165 170 175 175 171 169 166 168 173 178 182 182 181 181 182 181 179 183 184 189 192 194 195 195 192 186 182 183 183 184 197 190 180 160 137 112 90 76
252 277 299 294 291 281 296 311 281 197 161 173 184 187 182 178 175 176 177 179 181 181 178 178 180 180 183 183 185 185 187 187 186 185 181 175 168 163 156 137 140 148 136 123 104 87 75 61 46
343 337 310 297 291 289 326 274 278 216 177 187 194 196 191 188 188 184 180 179 179 176 175 176 179 176 178 179 178 176 178 174 170 163 157 151 145 141 127 111 97 88 89 89 80 65 60 45 32
345 287 288 297 284 276 253 257 269 247 204 199 198 199 196 193 194 190 183 182 180 178 174 173 171 168 167 161 156 153 153 151 148 139 130 123 120 118 107 94 85 86 77 63 70 58 62 43 18
252 271 284 278 290 304 278 263 270 265 230 211 201 199 197 196 198 190 187 185 182 178 175 171 167 165 157 146 132 128 120 116 113 111 108 105 104 104 98 86 78 78 73 62 63 65 54 49 18
228 269 279 279 286 290 271 264 269 268 248 224 200 195 200 203 199 189 186 185 179 176 178 174 169 170 163 153 146 141 130 113 94 86 94 97 98 95 89 84 69 63 69 63 58 67 53 33 16
250 265 274 286 283 262 267 274 271 267 241 214 198 198 196 191 187 186 185 183 182 181 182 176 174 172 167 155 144 130 120 106 91 88 81 88 93 91 88 79 73 65 70 59 50 55 64 31 29
253 241 252 259 282 308 298 317 317 309 298 237 202 198 193 186 182 183 182 183 180 180 176 169 161 152 142 130 122 116 102 91 82 81 76 75 85 87 90 84 77 69 75 73 64 61 75 51 26
251 241 237 248 255 271 266 280 295 302 319 305 281 257 216 194 182 179 177 176 174 168 150 137 135 131 128 128 137 139 136 128 115 111 99 82 87 94 95 91 86 81 82 83 75 76 82 85 50
237 248 241 237 220 292 342 326 285 306 294 282 278 270 246 204 184 177 172 164 149 134 125 120 120 119 123 125 132 126 120 118 121 114 107 97 90 97 100 97 93 91 91 93 86 83 78 95 114
230 221 24 54 71 330 270 244 286 271 255 268 277 274 236 186 164 147 134 125 119 116 115 117 117 115 118 124 129 132 132 133 131 125 120 112 99 89 93 96 94 100 106 106 102 95 81 108 154
198 134 38 346 0 260 272 246 255 267 267 258 267 300 118 135 135 132 128 123 118 112 109 109 112 110 112 114 114 118 123 125 126 128 127 125 114 102 97 93 94 101 111 104 90 75 2 273 252
210 154 163 191 218 269 318 232 260 297 333 32 78 88 92 100 108 112 109 106 103 99 97 101 103 101 101 103 104 105 105 105 106 108 111 119 117 113 111 105 101 109 113 109 135 180 254 249 249
173 179 174 156 183 228 277 280 324 6 30 55 77 87 92 95 97 96 91 88 88 86 84 92 97 95 93 96 99 98 97 97 98 96 96 101 107 109 108 113 118 143 191 210 204 235 258 263 262
182 160 111 134 171 228 270 306 323 334 17 67 88 95 94 93 91 86 83 83 84 87 87 84 90 94 94 94 97 101 97 99 101 101 101 102 104 105 112 119 145 230 282 307 326 327 335 344 343
357 128 127 142 162 171 215 287 341 317 14 98 98 99 99 97 95 93 92 91 92 93 94 93 92 95 95 96 95 95 97 100 99 101 104 107 100 90 74 56 44 38 38 41 46 43 35 28 11
98 101 125 167 233 171 152 189 347 35 73 104 106 104 101 101 101 102 104 105 105 104 102 100 99 99 99 99 96 93 93 93 90 87 82 79 71 59 58 63 71 74 69 60 52 33 22 6 347
Height
1529 1528 1528 1528 1530 1541 1540 1525 1511 1510 1511 1510 1510 1512 1515 1518 1523 1530 1526 1528 1532 1534 1537 1539 1541 1542 1544 1545 1547 1548 1549 1551 1552 1553 1554 1555 1556 1557 1558 1559 1560 1561 1562 1563 1564 1565 1566 1567 1567
1527 1527 1528 1527 1538 1550 1540 1518 1510 1507 1509 1509 1510 1510 1513 1518 1519 1521 1524 1530 1533 1534 1537 1539 1541 1542 1544 1545 1547 1548 1549 1551 1552 1553 1554 1555 1556 1558 1559 1560 1561 1562 1563 1564 1565 1565 1566 1567 1567
1525 1525 1526 1528 1538 1543 1530 1512 1508 1507 1508 1507 1509 1510 1513 1519 1520 1523 1526 1530 1533 1535 1537 1539 1541 1543 1544 1546 1547 1548 1550 1551 1552 1553 1554 1556 1557 1558 1559 1560 1561 1562 1563 1564 1565 1566 1566 1567 1567
1523 1525 1525 1532 1534 1525 1517 1509 1507 1508 1509 1507 1507 1512 1516 1520 1520 1524 1528 1531 1533 1536 1538 1540 1542 1544 1545 1546 1548 1549 1550 1551 1552 1553 1555 1556 1557 1558 1559 1561 1562 1563 1563 1564 1565 1566 1566 1566 1567
1523 1523 1529 1535 1528 1516 1509 1505 1505 1505 1507 1506 1505 1512 1518 1521 1522 1525 1528 1532 1534 1536 1539 1541 1543 1544 1546 1547 1548 1549 1550 1552 1553 1554 1555 1556 1558 1559 1560 1561 1562 1562 1563 1564 1565 1565 1566 1566 1567
1523 1523 1535 1538 1524 1509 1502 1499 1501 1503 1505 1506 1507 1513 1520 1522 1522 1526 1529 1533 1535 1536 1539 1541 1543 1545 1546 1548 1549 1550 1551 1552 1553 1555 1556 1557 1558 1559 1560 1561 1561 1562 1563 1564 1564 1565 1566 1566 1567
1522 1525 1531 1526 1518 1508 1497 1494 1497 1499 1502 1504 1505 1512 1520 1523 1523 1526 1530 1533 1535 1537 1539 1541 1543 1545 1547 1548 1549 1551 1552 1553 1554 1555 1556 1557 1558 1559 1560 1561 1561 1562 1563 1564 1564 1565 1565 1566 1566
1519 1522 1523 1520 1514 1506 1494 1494 1495 1496 1499 1503 1504 1508 1516 1521 1523 1526 1530 1533 1535 1537 1539 1541 1543 1545 1547 1548 1550 1551 1552 1553 1554 1555 1556 1557 1558 1559 1560 1560 1561 1562 1563 1563 1564 1564 1565 1565 1566
1518 1525 1527 1517 1508 1500 1494 1494 1495 1496 1497 1500 1502 1504 1510 1518 1522 1525 1529 1532 1534 1536 1539 1541 1543 1545 1546 1548 1549 1550 1552 1553 1554 1555 1556 1557 1558 1558 1559 1560 1561 1562 1562 1563 1564 1564 1565 1565 1566
1514 1524 1515 1504 1499 1497 1494 1493 1493 1495 1497 1499 1502 1507 1512 1516 1518 1521 1524 1528 1531 1534 1537 1539 1541 1543 1545 1546 1548 1549 1550 1552 1553 1554 1555 1557 1558 1558 1559 1560 1561 1561 1562 1563 1564 1564 1565 1565 1565
1509 1510 1503 1499 1496 1496 1493 1491 1491 1493 1496 1495 1498 1504 1510 1513 1516 1519 1521 1524 1528 1531 1533 1536 1539 1541 1543 1544 1546 1547 1548 1550 1551 1553 1554 1556 1557 1558 1559 1559 1560 1561 1562 1562 1563 1563 1564 1564 1564
1505 1501 1499 1496 1494 1495 1492 1489 1488 1488 1489 1489 1491 1496 1502 1507 1511 1514 1517 1521 1525 1527 1530 1533 1536 1538 1540 1542 1543 1545 1546 1547 1549 1551 1552 1554 1555 1556 1557 1558 1559 1560 1560 1561 1561 1561 1561 1562 1562
1503 1499 1495 1493 1491 1490 1488 1486 1485 1485 1486 1488 1490 1493 1496 1500 1506 1510 1514 1518 1521 1523 1526 1528 1531 1535 1537 1539 1541 1543 1544 1545 1547 1548 1550 1551 1553 1554 1555 1556 1557 1557 1558 1558 1558 1559 1559 1559 1560
1497 1494 1491 1489 1488 1485 1484 1482 1483 1483 1485 1487 1489 1491 1493 1495 1500 1505 1509 1512 1515 1518 1521 1524 1527 1531 1533 1535 1538 1540 1542 1543 1545 1546 1547 1549 1550 1552 1553 1554 1554 1555 1555 1556 1556 1556 1557 1557 1558
1495 1495 1492 1487 1484 1481 1481 1483 1479 1480 1484 1486 1486 1488 1489 1491 1495 1497 1501 1504 1508 1513 1516 1520 1524 1527 1530 1532 1535 1537 1539 1540 1542 1544 1545 1547 1549 1550 1552 1553 1553 1553 1553 1554 1554 1554 1555 1555 1555
1495 1498 1502 1489 1483 1480 1485 1492 1477 1478 1482 1485 1485 1486 1486 1488 1490 1492 1496 1500 1504 1508 1511 1515 1519 1523 1527 1530 1532 1534 1536 1538 1540 1541 1543 1546 1547 1549 1550 1551 1552 1552 1552 1552 1552 1552 1552 1552 1552
1502 1507 1503 1494 1481 1480 1483 1488 1474 1474 1477 1479 1481 1482 1482 1484 1487 1489 1492 1495 1499 1502 1506 1509 1513 1517 1522 1526 1529 1531 1534 1536 1538 1540 1541 1543 1545 1547 1548 1549 1549 1550 1550 1550 1550 1550 1549 1549 1548
1509 1505 1502 1499 1484 1482 1485 1484 1472 1469 1471 1472 1474 1476 1478 1479 1479 1482 1487 1491 1495 1499 1501 1503 1506 1511 1516 1521 1525 1528 1531 1533 1536 1537 1539 1541 1543 1544 1545 1546 1547 1547 1547 1547 1547 1547 1546 1545 1544
1497 1500 1504 1495 1484 1486 1486 1482 1472 1466 1467 1467 1468 1470 1472 1473 1474 1479 1483 1487 1491 1495 1498 1498 1501 1505 1509 1513 1517 1521 1525 1528 1532 1534 1536 1538 1540 1541 1542 1543 1544 1545 1545 1545 1544 1544 1543 1541 1539
1494 1501 1501 1492 1480 1482 1483 1480 1470 1464 1462 1461 1463 1464 1466 1469 1473 1476 1480 1484 1486 1489 1493 1496 1499 1502 1505 1507 1511 1516 1519 1523 1527 1530 1533 1535 1536 1537 1539 1540 1541 1542 1542 1542 1542 1540 1539 1537 1535
1493 1498 1496 1494 1483 1480 1481 1483 1475 1464 1459 1458 1458 1459 1459 1461 1464 1468 1473 1477 1481 1485 1489 1493 1497 1501 1504 1505 1508 1512 1516 1520 1523 1526 1529 1531 1532 1534 1535 1537 1539 1539 1539 1539 1538 1537 1536 1535 1533
1494 1482 1483 1485 1491 1496 1485 1502 1483 1470 1463 1459 1456 1455 1455 1456 1458 1461 1465 1470 1475 1481 1487 1492 1496 1500 1502 1504 1505 1508 1511 1516 1519 1523 1526 1528 1530 1532 1533 1534 1536 1536 1536 1536 1535 1534 1533 1532 1531
1480 1472 1478 1478 1484 1491 1488 1498 1492 1474 1468 1460 1453 1451 1451 1453 1455 1457 1461 1466 1473 1480 1486 1491 1495 1500 1500 1501 1504 1507 1511 1514 1518 1521 1524 1526 1528 1530 1532 1532 1533 1533 1533 1533 1533 1532 1530 1529 1528
1466 1471 1475 1483 1492 1504 1492 1495 1497 1476 1465 1456 1449 1446 1446 1448 1452 1457 1461 1467 1473 1480 1485 1490 1494 1497 1497 1497 1503 1506 1509 1512 1515 1519 1521 1524 1525 1528 1529 1530 1531 1531 1532 1531 1531 1530 1529 1528 1527
1464 1482 1503 1504 1514 1509 1490 1491 1490 1463 1454 1450 1448 1446 1445 1448 1452 1457 1462 1468 1475 1481 1487 1491 1493 1495 1497 1500 1503 1506 1509 1511 1514 1516 1519 1521 1524 1526 1527 1529 1530 1530 1530 1529 1528 1528 1527 1526 1525
1464 1474 1501 1513 1515 1507 1488 1491 1479 1460 1453 1449 1449 1450 1451 1455 1459 1464 1469 1474 1479 1485 1489 1491 1493 1495 1498 1501 1503 1505 1507 1510 1512 1515 1518 1521 1523 1525 1526 1527 1528 1528 1528 1528 1527 1526 1526 1525 1523
1461 1469 1469 1490 1497 1504 1500 1484 1471 1462 1458 1456 1457 1457 1460 1463 1466 1471 1476 1480 1485 1489 1492 1494 1495 1497 1498 1501 1503 1505 1507 1510 1512 1515 1518 1520 1522 1524 1525 1526 1527 1527 1526 1526 1525 1525 1524 1522 1521
1446 1453 1476 1490 1505 1512 1499 1490 1490 1476 1470 1464 1464 1465 1468 1470 1474 1477 1481 1485 1488 1492 1495 1497 1498 1499 1500 1502 1504 1506 1508 1511 1514 1516 1518 1520 1521 1523 1524 1525 1525 1525 1525 1524 1523 1522 1521 1519 1517
1449 1453 1464 1480 1487 1502 1508 1503 1482 1479 1473 1469 1470 1472 1474 1477 1479 1482 1485 1489 1491 1494 1496 1499 1501 1501 1503 1504 1506 1508 1510 1513 1515 1517 1518 1520 1521 1522 1523 1523 1523 1523 1522 1521 1520 1518 1516 1514 1512
1445 1451 1459 1478 1484 1487 1498 1505 1482 1479 1475 1474 1475 1478 1480 1482 1484 1486 1488 1490 1492 1494 1496 1499 1502 1504 1505 1506 1508 1510 1512 1513 1515 1517 1518 1520 1520 1521 1521 1521 1521 1520 1520 1518 1517 1515 1512 1510 1507